Location: Barton Flats Campground
(34.1722°N, 116.8753°W)
Time: 20:04:44
(UTC+00:00)

SeaSat 1 - Pass Details

Date: 08 August 2020
Orbit: 744 x 748 km, 108.0° (Epoch: 01 October)

Event Time Altitude Azimuth Distance (km) Brightness Sun altitude
Rises 12:32:25 0° 7° (N) 3,195 6.2 -6.9°
Reaches altitude 10° 12:35:15 10° 350° (N) 2,268 5.1 -6.4°
Maximum altitude 12:38:40 19° 306° (NW) 1,711 4.0 -5.7°
Drops below altitude 10° 12:42:07 10° 261° (W) 2,261 4.3 -5.1°
Enters shadow 12:43:21 - 252° (WSW) 2,639 4.6 -4.8°
